Location: Blue Sky Observatory
(43.1153°N, 70.9036°W)
Time: 20:11:06
(UTC-05:00)

Daily predictions for brighter satellites

Satellite Brightness Start Highest point End
(mag) Time Altitude Azimuth Time Altitude Azimuth Time Altitude Azimuth
Cosmos 2237 Rocket 2.2 17:08:56 10° SSW 17:14:33 77° ESE 17:20:13 10° NNE
Cosmos 2369 Rocket 4.1 17:15:33 10° NNE 17:16:28 10° NE 17:17:23 10° NE
SJ-12 4.4 17:12:53 10° S 17:17:00 68° W 17:21:07 10° NNW
Cosmos 2151 3.0 17:13:48 10° S 17:17:56 60° E 17:22:05 10° NNE
YAOGAN 1 2.6 17:13:46 10° SSE 17:18:05 86° ENE 17:22:27 10° NNW
COSMO-SKYMED 1 3.3 17:14:44 10° NNE 17:18:41 33° E 17:22:35 10° SSE
BREEZE-M DEB (TANK) 3.2 17:17:31 10° SSW 17:19:49 27° SE 17:21:59 10° E
Cosmos 1300 2.6 17:16:20 10° N 17:20:11 78° E 17:24:01 10° S
Meteor 1-27 4.4 17:15:05 10° N 17:20:51 59° ENE 17:26:36 10° SSE
Thor Agena Rocket 3.6 17:15:44 10° NNE 17:20:59 73° ESE 17:26:08 10° S
AQUARIUS 4.5 17:17:56 10° S 17:22:25 74° WSW 17:26:56 10° NNW
SL-16 R/B 2.7 17:17:52 10° S 17:23:05 39° ESE 17:28:18 10° NE
MONITOR-E 4.4 17:20:43 10° SSE 17:23:47 50° ENE 17:26:53 10° N
Meteor 2-10 4.0 17:19:56 10° N 17:25:00 61° ENE 17:30:13 10° SSE
COSMOS 2428 4.3 17:20:01 10° WSW 17:25:08 33° NW 17:30:17 10° N
SPOT 3 Rocket 3.7 17:20:34 10° SSE 17:25:43 81° WSW 17:30:56 10° NNW
Cosmos 44 Rocket 4.4 17:22:14 10° WSW 17:27:08 45° NW 17:31:58 10° NNE
CZ-3A R/B 3.1 17:24:57 10° NW 17:30:11 47° NNE 17:35:11 10° ESE
CZ-4C R/B 4.4 17:30:54 10° NNW 17:34:08 14° NNE 17:37:32 10° NE
Cosmos 2297 3.7 17:29:18 10° NNW 17:35:00 65° ENE 17:40:40 10° SE
SL-14 R/B 3.4 17:32:11 10° S 17:36:08 81° W 17:40:09 10° N
FREGAT/IRIS 4.3 17:34:18 10° ESE 17:36:15 16° ENE 17:38:12 10° NNE
Cosmos 1484 Rocket 2.7 17:34:08 10° SSE 17:38:05 77° ENE 17:42:06 10° N
Cosmos 304 Rocket 3.8 17:33:26 10° S 17:38:10 60° ESE 17:42:54 10° NNE
Resurs 01 Rocket 3.2 17:35:38 10° E 17:38:11 15° ENE 17:40:45 10° NNE
Cosmos 1340 Rocket 2.7 17:36:07 10° S 17:40:00 65° E 17:43:54 10° NNE
Cosmos 2279 Rocket 4.0 17:37:10 10° N 17:43:25 81° E 17:49:40 10° S
Meteor 1-28 Rocket 3.6 17:41:26 10° NNE 17:44:59 41° E 17:48:31 10° S
Lacrosse 4 Rocket 2.2 17:42:12 10° N 17:45:44 28° NE 17:48:48 12° ESE
Cosmos 1151 Rocket 4.0 17:42:07 10° NNW 17:46:16 50° W 17:50:26 10° SSW
METEOR-M 4.4 17:45:53 10° SE 17:50:57 45° ENE 17:56:02 10° N
IDEFIX/ARIANE 42P 4.4 17:47:56 10° SSW 17:52:42 36° W 17:57:31 10° NNW
Cosmos 1869 4.2 17:50:20 10° NNE 17:53:50 27° ENE 17:57:18 10° SE
Cosmos 540 Rocket 4.4 17:50:13 10° SW 17:55:13 49° WNW 18:00:15 10° N
Aureole 2 Rocket 3.5 17:51:36 10° SW 17:55:19 52° WNW 17:59:23 10° NNE
USA 215 3.4 17:53:29 11° ESE 17:59:39 55° NNE 18:06:01 10° NW
NOAA 12 4.1 17:54:35 10° SSE 17:59:42 58° ENE 18:04:53 10° N
Cosmos 773 Rocket 4.3 17:55:44 10° S 18:00:35 43° ESE 18:04:53 13° NE
Cosmos 2058 3.6 17:58:05 10° SSW 18:02:06 55° W 18:06:09 10° N
Nadezhda 4 Rocket 4.0 17:57:43 10° S 18:03:50 58° E 18:10:03 10° NNE
ATLAS 5 CENTAUR R/B 3.9 18:01:01 10° N 18:04:29 16° NNE 18:05:48 15° NE
Cosmos 1805 Rocket 3.6 18:01:15 10° S 18:05:42 89° W 18:10:12 10° N
Lacrosse 5 3.7 18:02:42 10° NW 18:05:59 17° N 18:08:06 14° NNE
SKYMED 2 3.8 18:02:30 10° N 18:06:52 74° WNW 18:11:10 10° SSW
Cosmos 2242 Rocket 3.9 18:02:56 10° N 18:07:09 42° ENE 18:11:22 10° SSE
Cosmos 1461 3.1 18:04:50 10° SW 18:08:59 68° NW 18:12:04 17° NNE
Cosmos 1626 2.1 18:11:05 10° S 18:14:50 87° W 18:18:36 10° N
Aureole 1 Rocket 4.0 18:11:43 10° S 18:17:07 60° ESE 18:24:13 10° NNE
Sich 1 3.0 18:14:19 10° S 18:18:45 82° E 18:23:13 10° N
Cosmos 2219 Rocket 4.3 18:16:29 10° W 18:20:51 22° NW 18:25:12 10° N
Lacrosse 5 rocket 4.1 18:18:29 10° W 18:21:09 18° SW 18:23:54 10° SSW
Cosmos 1356 Rocket 3.4 18:18:10 10° SSW 18:22:09 76° W 18:26:10 10° N
Cosmos 1943 Rocket 4.0 18:19:19 10° N 18:21:11 14° NNE 18:21:11 14° NNE
ALOS 2.5 18:20:01 10° SE 18:24:27 46° ENE 18:28:56 10° N
Cosmos 1092 Rocket 4.0 18:19:57 10° S 18:26:11 63° E 18:32:27 10° NNE
Cosmos 2333 Rocket 4.2 18:23:00 10° WSW 18:27:37 25° NW 18:32:14 10° N
Cosmos 1603 3.9 18:22:28 10° S 18:27:49 48° ESE 18:30:06 31° NE
Cosmos 1633 Rocket 3.0 18:24:41 10° S 18:29:05 88° W 18:33:31 10° N
FengYun 1-2 T 4.2 18:25:05 10° SSE 18:30:31 58° ENE 18:35:55 10° N
Cosmos 292 Rocket 3.8 18:30:11 10° S 18:34:47 51° ESE 18:35:32 46° ENE
Coronas F rocket 3.4 18:32:50 10° SSW 18:33:36 18° SSW 18:33:36 18° SSW
Cosmos 1455 2.8 18:32:08 10° NNW 18:35:52 56° W 18:39:37 10° S
USA 229 DEB 3.6 18:36:24 10° SSW 18:43:14 80° SE 18:47:09 29° NE
USA 229 3.6 18:36:30 10° SSW 18:43:20 80° SE 18:47:12 29° NE
Abrixas 4.3 18:41:04 10° WNW 18:42:57 26° NW 18:42:57 26° NW
Cosmos 1242 Rocket 4.4 18:43:42 10° N 18:44:49 19° N 18:44:49 19° N
Cosmos 1184 Rocket 4.1 18:44:03 10° SSW 18:47:13 40° WNW 18:48:42 25° NNW
SJ-6B 3.6 18:45:02 10° S 18:49:02 53° W 18:53:07 10° NNW
Cosmos 2195 Rocket 4.4 18:43:26 10° S 18:49:25 62° E 18:55:29 10° NNE
Spot 2 Rocket 3.3 18:44:31 10° SSE 18:49:32 74° ENE 18:54:35 10° N
Cosmos 1862 Rocket 4.0 18:46:49 10° N 18:49:59 45° NNE 18:49:59 45° NNE
Orbus 7S? 4.5 18:47:30 10° NW 18:51:53 87° NE 19:00:10 16° SE
Iridium 4 Rocket 3.1 18:49:22 10° S 18:53:48 74° W 18:57:11 16° N
SL-19 R/B 4.4 18:51:08 10° SSE 18:56:59 79° WSW 19:02:36 10° NNW
Cosmos 2237 Rocket 4.5 18:55:20 10° W 18:59:16 19° NW 19:03:15 10° N
Cosmos 2369 Rocket 2.5 18:56:23 10° NNW 19:01:00 47° NNE 19:01:00 47° NNE
H-2A ROCKET BODY 4.0 18:49:22 10° WSW 19:06:04 31° SSW 19:09:18 21° SSE
SL-16 R/B 3.7 19:02:10 10° WSW 19:07:14 33° NW 19:11:54 12° N
Cosmos 1417 Rocket 4.3 19:07:19 10° N 19:13:16 69° ENE 19:13:16 69° ENE
Resurs 01 Rocket 2.1 19:12:15 31° SSW 19:14:11 59° W 19:18:36 10° NNW
Cosmos 923 Rocket 4.4 19:10:22 10° SSW 19:15:30 61° WNW 19:17:00 43° N
Cosmos 1933 Rocket 4.1 19:12:24 10° SSW 19:16:31 58° W 19:16:31 58° W
Cosmos 1680 Rocket 3.6 19:16:42 10° SSW 19:21:54 70° WNW 19:22:05 69° NW
Cosmos 1655 Rocket 3.9 19:16:45 10° S 19:23:07 84° E 19:24:06 66° NNE
Lacrosse 4 Rocket 3.3 19:20:55 10° NW 19:24:23 27° WSW 19:25:17 25° SW
CZ-4C R/B 3.8 19:18:55 10° NNW 19:23:28 29° NNE 19:23:28 29° NNE
NOSS 3-1 (C) 4.0 19:29:02 10° SSW 19:32:52 44° SSW 19:32:52 44° SSW
USA 215 3.8 19:40:52 41° S 19:42:41 51° SW 19:49:02 10° WNW
ATLAS 3B R/B 4.3 19:42:38 10° NNW 19:45:53 21° N 19:45:53 21° N
Lacrosse 5 4.1 19:45:55 10° NW 19:47:19 17° NNW 19:47:19 17° NNW
ATLAS 5 CENTAUR R/B 3.8 19:44:41 10° NNW 19:47:23 27° NNW 19:47:23 27° NNW
Cosmos 1943 Rocket 4.3 20:01:32 10° NNW 20:02:44 17° NNW 20:02:44 17° NNW
